This demonstration page uses our WeatherBlox Daily Observations layout. Learn more.

Left ArrowRight Arrow

44.8408, -93.29828

Hourly Observations for March 17, 2017

Temp ( °F °C ) Dew Point ( °F °C ) Humidity (%) Winds ( mph kmh ) Pressure ( in mb ) Visibility ( mi km ) Precip ( " mm )
12:53 am 00:53 Cloudy 35 1.7 26 -3.3 70 70 SE 9 15 29.93 1014 10 16 0.00 0.00
1:53 am 01:53 Cloudy 35 1.7 26 -3.3 70 70 SE 7 11 29.91 1013 10 16 0.00 0.00
2:53 am 02:53 Cloudy 35 1.7 26 -3.3 70 70 SE 7 11 29.91 1013 10 16 0.00 0.00
3:53 am 03:53 Partly Cloudy 34 1.1 26 -3.3 73 73 Calm 29.90 1013 8 13 0.00 0.00
4:53 am 04:53 Mostly Clear 33 0.6 26 -3.3 75 75 SE 5 7 29.91 1013 7 11 0.00 0.00
5:53 am 05:53 Clear 34 1.1 26 -3.3 73 73 SE 5 7 29.91 1013 7 11 0.00 0.00
6:53 am 06:53 Mostly Clear 30 -1.1 25 -3.9 82 82 SSE 5 7 29.93 1013 9 14 0.00 0.00
7:53 am 07:53 Mostly Sunny 32 0 27 -2.8 82 82 SSW 3 6 29.94 1014 9 14 0.00 0.00
8:53 am 08:53 Mostly Sunny 35 1.7 28 -2.2 76 76 W 7 11 29.95 1014 9 14 0.00 0.00
9:19 am 09:19 Mostly Cloudy 36 2.2 27 -2.8 70 70 W 9 15 30.00 1016 9 14 0.00 0.00
9:53 am 09:53 Cloudy 37 2.8 28 -2.2 70 70 WNW 12 19 29.97 1015 9 14 0.00 0.00
10:53 am 10:53 Mostly Cloudy 39 3.9 32 0 76 76 W 13 20 29.98 1015 7 11 0.00 0.00
11:09 am 11:09 Mostly Cloudy 40 4.4 32 0 73 73 WNW 8 13 29.97 1015 8 13 0.00 0.00
11:31 am 11:31 Cloudy 41 5 32 0 70 70 W 8 13 29.97 1015 9 14 0.00 0.00
11:53 am 11:53 Cloudy 42 5.6 32 0 68 68 W 9 15 29.96 1015 10 16 0.00 0.00
12:05 pm 12:05 Cloudy 42 5.6 32 0 68 68 W 10 17 29.97 1015 10 16 0.00 0.00
12:53 pm 12:53 Cloudy 43 6.1 33 0.6 68 68 WSW 16 26 29.96 1015 10 16 0.00 0.00
1:39 pm 13:39 Cloudy 43 6.1 32 0 65 65 W 14 22 29.97 1015 10 16 0.00 0.00
1:53 pm 13:53 Cloudy 42 5.6 32 0 68 68 W 20 31 29.95 1014 10 16 0.00 0.00
1:57 pm 13:57 Cloudy 42 5.6 32 0 68 68 W 15 24 29.97 1015 10 16 0.00 0.00
2:53 pm 14:53 Cloudy 42 5.6 31 -0.6 65 65 W 20 31 29.95 1014 10 16 0.00 0.00
3:53 pm 15:53 Cloudy 40 4.4 32 0 73 73 WNW 18 30 29.96 1015 10 16 0.00 0.00
4:53 pm 16:53 Cloudy 39 3.9 31 -0.6 73 73 WNW 17 28 29.98 1015 10 16 0.00 0.00
5:53 pm 17:53 Cloudy 39 3.9 29 -1.7 67 67 WNW 17 28 30.01 1016 10 16 0.00 0.00
6:53 pm 18:53 Cloudy 38 3.3 29 -1.7 70 70 WNW 20 31 30.03 1017 10 16 0.00 0.00
7:53 pm 19:53 Cloudy 37 2.8 27 -2.8 67 67 NW 23 37 30.06 1018 10 16 0.00 0.00
8:53 pm 20:53 Cloudy 36 2.2 26 -3.3 67 67 WNW 20 31 30.07 1018 10 16 0.00 0.00
9:18 pm 21:18 Cloudy 36 2.2 26 -3.3 67 67 WNW 21 33 30.09 1019 10 16 0.00 0.00
9:28 pm 21:28 Cloudy 36 2 27 -3 70 70 WNW 18 30 30.09 1019 10 16 0.00 0.00
9:53 pm 21:53 Cloudy 36 2.2 25 -3.9 64 64 WNW 17 28 30.09 1019 10 16 0.00 0.00
10:06 pm 22:06 Cloudy 36 2.2 25 -3.9 64 64 NW 15 24 30.09 1019 10 16 0.00 0.00
10:18 pm 22:18 Cloudy 36 2 25 -4 65 65 NW 20 31 30.09 1019 10 16 0.00 0.00
10:53 pm 22:53 Cloudy 35 1.7 25 -3.9 67 67 WNW 14 22 30.10 1019 10 16 0.00 0.00
11:53 pm 23:53 Cloudy 35 1.7 25 -3.9 67 67 NW 12 19 30.11 1020 10 16 0.00 0.00

Powered by AerisWeather